Satellite-Ground Cal/Val Region Overpasses Predictions

Prediction of Satellite NPP Overpassing Cal/Val Region: PacNW

Region Location: (Latitude: 10.00, Longitude: 139.50) to (Latitude: 22.70, Longitude: 165.60).

Table of predicted overpasses for the next 14.0 days since TLE Epoch: 5/29/2021
Interval Starting Time Starting Location Ending Time Ending Location
1 05/29/2021 02:51:45 ( 10.62, 156.60) 05/29/2021 02:55:10 ( 22.66, 153.74)
2 05/29/2021 15:23:29 ( 22.64, 153.97) 05/29/2021 15:27:04 ( 10.02, 150.97)
3 05/30/2021 02:32:34 ( 10.02, 161.50) 05/30/2021 02:36:10 ( 22.70, 158.48)
4 05/30/2021 15:04:28 ( 22.66, 158.73) 05/30/2021 15:08:03 ( 10.04, 155.73)
5 05/31/2021 02:14:21 ( 12.88, 165.60) 05/31/2021 02:17:08 ( 22.68, 163.24)
6 05/31/2021 03:55:02 ( 10.00, 140.88) 05/31/2021 03:56:43 ( 15.94, 139.51)
7 05/31/2021 14:45:26 ( 22.68, 163.49) 05/31/2021 14:49:01 ( 10.06, 160.49)
8 06/01/2021 03:36:02 ( 10.05, 145.63) 06/01/2021 03:39:37 ( 22.67, 142.62)
9 06/01/2021 14:29:34 ( 11.60, 165.60) 06/01/2021 14:30:01 ( 10.02, 165.23)
10 06/01/2021 16:07:55 ( 22.69, 142.88) 06/01/2021 16:11:31 ( 10.01, 139.86)
11 06/02/2021 03:17:00 ( 10.03, 150.39) 06/02/2021 03:20:35 ( 22.65, 147.38)
12 06/02/2021 15:48:54 ( 22.65, 147.62) 06/02/2021 15:52:29 ( 10.03, 144.62)
13 06/03/2021 02:57:59 ( 10.01, 155.15) 06/03/2021 03:01:35 ( 22.69, 152.13)
14 06/03/2021 15:29:53 ( 22.67, 152.38) 06/03/2021 15:33:28 ( 10.05, 149.38)
15 06/04/2021 02:38:58 ( 10.06, 159.89) 06/04/2021 02:42:33 ( 22.68, 156.89)
16 06/04/2021 15:10:51 ( 22.68, 157.14) 06/04/2021 15:14:27 ( 10.01, 154.12)
17 06/05/2021 02:19:57 ( 10.04, 164.65) 06/05/2021 02:23:32 ( 22.66, 161.65)
18 06/05/2021 14:51:50 ( 22.70, 161.90) 06/05/2021 14:55:26 ( 10.02, 158.88)
19 06/06/2021 03:42:25 ( 10.03, 144.04) 06/06/2021 03:46:00 ( 22.65, 141.03)
20 06/06/2021 14:34:02 ( 18.38, 165.59) 06/06/2021 14:36:24 ( 10.04, 163.64)
21 06/06/2021 16:14:19 ( 22.65, 141.27) 06/06/2021 16:16:23 ( 15.38, 139.51)
22 06/07/2021 03:23:24 ( 10.01, 148.80) 06/07/2021 03:27:00 ( 22.70, 145.78)
23 06/07/2021 15:55:18 ( 22.67, 146.03) 06/07/2021 15:58:53 ( 10.05, 143.03)
24 06/08/2021 03:04:23 ( 10.00, 153.56) 06/08/2021 03:07:59 ( 22.68, 150.54)
25 06/08/2021 15:36:16 ( 22.68, 150.79) 06/08/2021 15:39:52 ( 10.01, 147.77)
26 06/09/2021 02:45:22 ( 10.05, 158.30) 06/09/2021 02:48:57 ( 22.67, 155.30)
27 06/09/2021 15:17:15 ( 22.70, 155.55) 06/09/2021 15:20:51 ( 10.02, 152.53)
28 06/10/2021 02:26:21 ( 10.03, 163.06) 06/10/2021 02:29:56 ( 22.66, 160.06)
29 06/10/2021 14:58:14 ( 22.65, 160.29) 06/10/2021 15:01:49 ( 10.03, 157.29)
30 06/11/2021 02:10:00 ( 19.48, 165.60) 06/11/2021 02:10:54 ( 22.64, 164.81)
31 06/11/2021 03:48:49 ( 10.02, 142.44) 06/11/2021 03:52:19 ( 22.35, 139.51)
32 06/11/2021 14:39:13 ( 22.67, 165.05) 06/11/2021 14:42:48 ( 10.05, 162.05)
